795  
ASUS41 KGYX 170510  
RWRGYX  
WEATHER ROUNDUP FOR MAINE AND NEW HAMPSHIRE  
NATIONAL WEATHER SERVICE GRAY ME  
1200 AM EST THU JAN 17 2019  
 
MEZ002-005-006-010-012-015-018-020-021-024-026-027-029-170600-  
MAINE  
 
CITY SKY/WX TMP DP RH WIND PRES REMARKS
 
PORTLAND FAIR 23 5 46 NW14G23 30.12R WCI 11  
SANFORD FAIR 21 4 47 NW10 30.14 WCI 10  
BAR HARBOR FAIR 21 6 52 NW9G23 30.05R  
WISCASSET FAIR 20 1 43 NW8G22 30.13R  
ROCKLAND FAIR 22 7 52 NW9G24 30.08R  
FRYEBURG FAIR 14 -2 49 NW9 30.13R  
LEWISTONAUBURN FAIR 17 3 54 NW8 30.13R  
AUGUSTA FAIR 15 -1 49 NW10G24 30.11R WCI 2  
WATERVILLE FAIR 14 1 56 MISG 30.08R  
BANGOR FAIR 15 -1 49 NW14G23 30.08R WCI 0  
GREENVILLE N/A 2 -8 63 NW14G22 29.96R WCI -16  
MILLINOCKET FAIR 7 -4 60 W13G24 30.05R WCI -9  
HOULTON FAIR 9 -1 64 W16G26 29.95R WCI -8  
PRESQUE ISLE FAIR 8 -1 66 W15G21 29.95R WCI -9  
FRENCHVILLE FAIR 1 -9 62 NW15 29.91R WCI -18  
CARIBOU FAIR 6 -4 63 NW10 29.93R WCI -9  

 
 
NHZ002-005-008-009-011-012-014-170600-  
NEW HAMPSHIRE  
 
CITY SKY/WX TMP DP RH WIND PRES REMARKS
 
PORTSMOUTH PTCLDY 24 -1 32 NW17G26 30.12R WCI 11  
ROCHESTER FAIR 21 3 45 NW10 30.13R WCI 10  
NASHUA FAIR 27 10 49 NW15 30.15R WCI 15  
MANCHESTER FAIR 26 7 44 NW15G22 30.14R WCI 14  
CONCORD FAIR 19 4 51 NW13G21 30.16R WCI 6  
LACONIA FAIR 15 2 56 NW12 30.17R WCI 2  
PLYMOUTH FAIR 13 0 57 NW10G18 30.18R WCI 0  
BERLIN FAIR 8 -3 61 NW9G17 30.10R  
WHITEFIELD MOCLDY 7 0 73 NW7 30.14R  
JAFFREY FAIR 23 2 40 NW10G16 30.11R WCI 12  
LEBANON FAIR 14 -1 51 NW7G17 30.20R  
MT WASHINGTON BLWGSNOW -15 -15 100 NW63G75 N/A VSB 1/16WCI -55  

 
 
VTZ005-007-008-170600-  
VERMONT  
 
CITY SKY/WX TMP DP RH WIND PRES REMARKS
 
ST JOHNSBURY N/A 8 -2 63 MISG 30.19R  
MONTPELIER FAIR 5 -3 69 N7 30.21R  
BURLINGTON FAIR 8 -5 55 N8 30.29R  

 
 
MAZ007-012-024-CTZ003-RIZ002-NYZ038-NYZ072-170600-  
SOUTHERN NEW ENGLAND AND NY  
 
CITY SKY/WX TMP DP RH WIND PRES REMARKS
 
BOSTON FAIR 33 13 43 NW9 30.14R  
WORCESTER FAIR 24 11 57 W13G20 30.10R WCI 12  
NANTUCKET FAIR 34 23 64 W12 30.11R  
PROVIDENCE FAIR 30 13 49 W7 30.16R  
HARTFORD FAIR 26 11 52 NW12 30.21R WCI 16  
ALBANY FAIR 23 4 44 NW13 30.27R WCI 11  
NEW YORK CITY MOCLDY 34 15 46 N12 30.24R  

 
 
ANZ081-ANZ082-ANZ150-NHZ014-MEZ023>029-170600-  
COASTAL MARINE OBSERVATIONS  
 
STATION/POSITION TIME TEMP WIND PRES WAVE
 
AIR SEA DIR/SP/G HT/PER  
(UTC) (F) (DEG/KT/KT) (MB) (FT/S)  
MOUNT DESERT ROC 0500 29 300/ 34/ 40 1015.3R  
MATINICUS ROCK 0400 32 300/ 31/ 33 1014.8R  
ISLE OF SHOALS 0400 30 320/ 24/ 28 1019.0R  
JEFFREYS LEDGE 0408 42 N/A 5/ 4  
CASHES LEDGE BUO 0450 33 40 1016.5R 7/ 6  

 
   
............KEY...........
 
 
WCI - WIND CHILL  
TC - TEMPERATURE IN CELSIUS  
VSB - VISIBILITY
IN MILES  
HX - HEAT INDEX  
FAIR- INDICATES FEW OR NO CLOUDS BELOW 12,000 FT, WITH NO  
SIGNIFICANT WEATHER AND/OR S TO VISIBILITY.  
 
 
 
CLICK HERE TO GO TO PREVIOUS BULLETINS.

The Nexlab ME Page
The Nexlab NH Page Main Text Page